Ionia, MI

9:42 AM EDT on October 17, 2017 (GMT -0400)
Ionia

Weather History for KY70 - January, 2013

Change the Weather History Date:

Thursday, January 17, 2013

  Actual Average (KGRR) Record (KGRR)
Temperature  
Mean Temperature 28 °F -  
Max Temperature 36 °F 29 °F 56 °F (1952)
Min Temperature 20 °F 15 °F -10 °F (1976)
Degree Days  
Heating Degree Days 37    
Moisture  
Dew Point 17 °F    
Average Humidity 59    
Maximum Humidity 75    
Minimum Humidity 44    
Precipitation  
Precipitation 0.00 in - - ()
Sea Level Pressure  
Sea Level Pressure 30.16 in    
Wind  
Wind Speed 9 mph (WNW)    
Max Wind Speed 21 mph    
Max Gust Speed 26 mph    
Visibility 10 miles    
Events Snow    
Averages and records for this station are not official NWS values.
T = Trace of Precipitation, MM = Missing Value Source: NWS Daily Summary

Daily Weather History Graph

Daily Weather History Graph

Search for Another Location

Airport or City:

Trip Planner

Search our weather history database for the weather conditions in past years. The results will help you decide how hot, cold, wet, or windy it might be!

Date:

Astronomy

Jan. 17, 2013 Rise Set
Actual Time 8:07 AM EST 5:34 PM EST
Civil Twilight 7:36 AM EST 6:05 PM EST
Nautical Twilight 7:01 AM EST 6:40 PM EST
Astronomical Twilight 6:27 AM EST 7:13 PM EST
Moon 11:02 AM EST No Moon Set
Length of Visible Light 10h 29m
Length of Day
9h 26m
Waxing Crescent, 37% of the Moon is Illuminated
Jan 17
Waxing Crescent
Jan 18
First Quarter
Jan 26
Full
Feb 3
Last Quarter
Feb 10
New

Hourly Weather History & Observations

Time (EST) Temp. Windchill Dew Point Humidity Pressure Visibility Wind Dir Wind Speed Gust Speed Precip Events Conditions
12:14 AM 36.7 °F 28.9 °F 28.4 °F 72% 29.94 in 7.0 mi West 11.5 mph - N/A   Overcast
12:34 AM 36.5 °F 29.2 °F 28.8 °F 74% 29.95 in 10.0 mi WNW 10.4 mph - N/A   Overcast
12:54 AM 36.5 °F 30.3 °F 28.2 °F 72% 29.97 in 10.0 mi WNW 8.1 mph - N/A   Overcast
1:13 AM 36.5 °F 31.0 °F 28.4 °F 72% 29.98 in 10.0 mi WNW 6.9 mph - N/A   Overcast
1:34 AM 36.5 °F 29.2 °F 27.5 °F 70% 29.99 in 10.0 mi WNW 10.4 mph - N/A   Overcast
1:54 AM 36.0 °F 30.3 °F 27.3 °F 71% 29.99 in 10.0 mi WNW 6.9 mph - N/A   Overcast
2:14 AM 35.8 °F 31.9 °F 26.4 °F 69% 30.00 in 10.0 mi West 4.6 mph - N/A   Overcast
2:34 AM 34.7 °F 30.6 °F 26.2 °F 71% 30.00 in 10.0 mi West 4.6 mph - N/A   Mostly Cloudy
2:54 AM 34.2 °F 29.0 °F 25.9 °F 72% 30.01 in 10.0 mi West 5.8 mph - N/A   Scattered Clouds
3:14 AM 31.5 °F 24.9 °F 23.9 °F 74% 30.02 in 10.0 mi West 6.9 mph - N/A   Clear
3:34 AM 31.8 °F 24.6 °F 24.8 °F 75% 30.04 in 10.0 mi West 8.1 mph - N/A   Scattered Clouds
3:54 AM 32.0 °F 26.4 °F 24.8 °F 75% 30.04 in 10.0 mi West 5.8 mph - N/A   Mostly Cloudy
4:34 AM 33.8 °F 27.0 °F 24.1 °F 68% 30.05 in 10.0 mi West 8.1 mph - N/A   Scattered Clouds
4:54 AM 33.3 °F 26.4 °F 24.3 °F 70% 30.07 in 10.0 mi WNW 8.1 mph - N/A   Mostly Cloudy
5:14 AM 33.6 °F 26.8 °F 24.8 °F 70% 30.08 in 10.0 mi WNW 8.1 mph - N/A   Overcast
5:34 AM 33.4 °F 27.3 °F 25.0 °F 71% 30.09 in 10.0 mi North 6.9 mph - N/A   Overcast
5:54 AM 32.7 °F 27.3 °F 24.3 °F 71% 30.10 in 10.0 mi NNW 5.8 mph - N/A   Overcast
6:14 AM 32.0 °F 28.7 °F 23.9 °F 72% 30.10 in 10.0 mi NNW 3.5 mph - N/A   Overcast
6:34 AM 32.0 °F 28.7 °F 23.0 °F 69% 30.11 in 10.0 mi NNW 3.5 mph - N/A   Overcast
6:54 AM 31.6 °F 27.0 °F 22.3 °F 68% 30.11 in 10.0 mi NW 4.6 mph - N/A   Overcast
7:14 AM 31.3 °F 25.6 °F 21.6 °F 67% 30.12 in 10.0 mi NW 5.8 mph - N/A   Mostly Cloudy
7:34 AM 31.6 °F 28.3 °F 21.9 °F 67% 30.13 in 10.0 mi WNW 3.5 mph - N/A   Mostly Cloudy
7:54 AM 32.0 °F 28.7 °F 21.4 °F 65% 30.13 in 10.0 mi West 3.5 mph - N/A   Overcast
8:14 AM 32.0 °F 27.5 °F 21.7 °F 66% 30.15 in 10.0 mi WNW 4.6 mph - N/A   Overcast
8:34 AM 32.0 °F 28.7 °F 21.2 °F 64% 30.15 in 10.0 mi WNW 3.5 mph - N/A   Overcast
8:54 AM 32.0 °F 28.7 °F 19.9 °F 61% 30.16 in 10.0 mi WNW 3.5 mph - N/A   Overcast
9:14 AM 32.0 °F 28.7 °F 20.3 °F 62% 30.17 in 10.0 mi West 3.5 mph - N/A   Overcast
9:34 AM 32.5 °F 26.2 °F 19.6 °F 59% 30.17 in 10.0 mi West 6.9 mph - N/A   Overcast
9:54 AM 32.9 °F 26.7 °F 20.1 °F 59% 30.17 in 10.0 mi West 6.9 mph - N/A   Overcast
10:14 AM 32.9 °F 24.7 °F 18.5 °F 55% 30.18 in 10.0 mi West 10.4 mph 16.1 mph N/A   Overcast
10:34 AM 33.8 °F 24.8 °F 19.0 °F 55% 30.18 in 10.0 mi West 12.7 mph 18.4 mph N/A   Overcast
10:54 AM 33.8 °F 25.3 °F 19.9 °F 57% 30.18 in 10.0 mi WNW 11.5 mph - N/A   Overcast
11:14 AM 34.3 °F 23.5 °F 18.3 °F 52% 30.18 in 10.0 mi West 18.4 mph 23.0 mph N/A   Overcast
11:34 AM 34.7 °F 24.7 °F 17.6 °F 50% 30.18 in 10.0 mi WNW 16.1 mph 21.9 mph N/A   Mostly Cloudy
11:54 AM 33.1 °F 23.9 °F 15.4 °F 48% 30.17 in 10.0 mi NW 12.7 mph - N/A   Mostly Cloudy
12:14 PM 33.8 °F 23.5 °F 14.9 °F 46% 30.17 in 10.0 mi West 16.1 mph 23.0 mph N/A   Scattered Clouds
12:34 PM 34.3 °F 23.5 °F 14.2 °F 44% 30.16 in 10.0 mi WNW 18.4 mph 21.9 mph N/A   Clear
12:54 PM 34.0 °F 23.4 °F 14.0 °F 44% 30.15 in 10.0 mi West 17.3 mph 23.0 mph N/A   Clear
1:14 PM 35.2 °F 25.8 °F 15.4 °F 44% 30.15 in 10.0 mi WNW 15.0 mph 23.0 mph N/A   Clear
1:34 PM 33.3 °F 22.5 °F 15.8 °F 49% 30.15 in 10.0 mi WNW 17.3 mph 23.0 mph N/A   Scattered Clouds
1:54 PM 33.3 °F 22.8 °F 14.4 °F 46% 30.16 in 10.0 mi WNW 16.1 mph 24.2 mph N/A   Mostly Cloudy
2:14 PM 32.2 °F 21.1 °F 15.1 °F 49% 30.16 in 10.0 mi WNW 17.3 mph 23.0 mph N/A   Overcast
2:34 PM 32.0 °F 21.6 °F 16.3 °F 52% 30.16 in 10.0 mi WNW 15.0 mph - N/A   Overcast
2:53 PM 32.0 °F 20.5 °F 15.1 °F 50% 30.16 in 10.0 mi West 18.4 mph 25.3 mph N/A   Overcast
3:14 PM 30.9 °F 19.1 °F 15.1 °F 52% 30.17 in 10.0 mi WNW 18.4 mph - N/A   Overcast
3:34 PM 30.2 °F 19.8 °F 16.3 °F 56% 30.17 in 7.0 mi West 13.8 mph 18.4 mph N/A Snow Light Snow
3:54 PM 29.3 °F 17.7 °F 15.3 °F 56% 30.17 in 10.0 mi NW 16.1 mph 21.9 mph N/A   Overcast
4:14 PM 28.8 °F 15.9 °F 12.9 °F 52% 30.18 in 10.0 mi WNW 19.6 mph 23.0 mph N/A Snow Light Snow
4:34 PM 27.7 °F 14.1 °F 11.1 °F 50% 30.19 in 10.0 mi WNW 20.7 mph 26.5 mph N/A   Overcast
4:54 PM 27.3 °F 15.6 °F 10.4 °F 49% 30.21 in 10.0 mi WNW 15.0 mph 26.5 mph N/A   Overcast
5:14 PM 26.4 °F 14.0 °F 9.5 °F 49% 30.22 in 10.0 mi WNW 16.1 mph 25.3 mph N/A   Mostly Cloudy
5:34 PM 25.5 °F 14.3 °F 7.5 °F 47% 30.24 in 10.0 mi West 12.7 mph 19.6 mph N/A   Scattered Clouds
5:54 PM 25.3 °F 13.1 °F 7.3 °F 47% 30.25 in 10.0 mi WNW 15.0 mph 19.6 mph N/A   Mostly Cloudy
6:14 PM 24.8 °F 14.6 °F 6.8 °F 46% 30.26 in 10.0 mi WNW 10.4 mph 18.4 mph N/A   Overcast
6:34 PM 24.4 °F 13.0 °F 7.0 °F 48% 30.26 in 10.0 mi WNW 12.7 mph - N/A   Overcast
6:54 PM 24.4 °F 14.9 °F 7.3 °F 48% 30.26 in 10.0 mi NW 9.2 mph - N/A   Overcast
7:14 PM 24.4 °F 14.9 °F 7.7 °F 49% 30.27 in 10.0 mi WNW 9.2 mph - N/A   Overcast
7:34 PM 24.3 °F 14.6 °F 7.5 °F 49% 30.28 in 10.0 mi NW 9.2 mph - N/A   Overcast
7:54 PM 23.9 °F 15.0 °F 7.9 °F 51% 30.29 in 10.0 mi WNW 8.1 mph - N/A   Overcast
8:14 PM 24.3 °F 15.4 °F 8.2 °F 51% 30.28 in 10.0 mi WNW 8.1 mph - N/A   Overcast
8:34 PM 24.3 °F 17.3 °F 8.6 °F 51% 30.29 in 10.0 mi WNW 5.8 mph - N/A   Overcast
8:54 PM 24.1 °F 17.0 °F 8.8 °F 52% 30.29 in 10.0 mi WNW 5.8 mph - N/A   Overcast
9:14 PM 23.9 °F 16.8 °F 8.8 °F 53% 30.29 in 10.0 mi NW 5.8 mph - N/A   Overcast
9:54 PM 23.0 °F - 9.5 °F 56% 30.30 in 10.0 mi Calm Calm - N/A   Overcast
10:14 PM 22.3 °F 17.6 °F 10.0 °F 59% 30.30 in 10.0 mi NNW 3.5 mph - N/A   Overcast
10:34 PM 22.5 °F 17.8 °F 9.5 °F 58% 30.30 in 10.0 mi NW 3.5 mph - N/A   Overcast
10:54 PM 21.4 °F - 10.4 °F 63% 30.29 in 10.0 mi Calm Calm - N/A   Mostly Cloudy
11:14 PM 21.4 °F 16.6 °F 10.2 °F 62% 30.29 in 10.0 mi NW 3.5 mph - N/A   Scattered Clouds
11:34 PM 20.7 °F - 10.2 °F 64% 30.29 in 10.0 mi Calm Calm - N/A   Scattered Clouds
11:54 PM 20.7 °F 15.8 °F 10.2 °F 64% 30.30 in 10.0 mi WNW 3.5 mph - N/A   Clear